Date String (YYYY-MM-DD hh:mm:ss) UTC,Instrument flags,absolute air pressure of the measurement (hPa),sample flow rate (lpm),inlet stack bypass flow (lpm),air temperature of the measurement (°C),ambient temperature measured by the external sensor (°C),aerosol sample conditioner tube jacket temperature (°C),OPC LED temperature (°C),internal box temperature (°C),relative humidity of the measurement (%),span deviation,mass concentration of particles derived from Lorenz-Mie calculation of OPC scattering (μg/m³),mass concentration of particles derived from Lorenz-Mie calculation of OPC scattering (μg/m³),mass concentration of particles derived from Lorenz-Mie calculation of OPC scattering (μg/m³)
DateTimeUTC,F1_M11,P_M11,Q1_M11,Q2_M11,T1_M11,T2_M11,T3_M11,T4_M11,T5_M11,U1_M11,ZSPAN_M11,X2_M11,X0_M11,X1_M11
2024-01-23 23:00:00,SystemResetWarning,0824.5,4.99,000.00,026.4,025.5,000.0,034.6,027.9,14.2,0002.0,0010.58,0017.36,0009.85
2024-01-23 23:01:00,SystemResetWarning,0824.6,4.99,000.00,026.5,025.5,000.0,034.6,027.9,14.1,0001.8,0010.55,0017.05,0009.82
2024-01-23 23:02:00,SystemResetWarning,0824.5,4.99,000.00,026.5,025.6,000.0,034.7,027.9,14.1,0002.0,0010.50,0016.74,0009.78
2024-01-23 23:03:00,SystemResetWarning,0824.5,5.00,000.00,026.5,025.6,000.0,034.7,028.0,14.1,0002.1,0010.53,0016.73,0009.77
2024-01-23 23:04:00,SystemResetWarning,0824.5,5.01,000.00,026.5,025.6,000.0,034.7,028.0,14.1,0002.6,0010.53,0016.62,0009.77
2024-01-23 23:05:00,SystemResetWarning,0824.5,5.01,000.00,026.5,025.6,000.0,034.7,028.0,14.0,0002.6,0010.61,0017.01,0009.81
2024-01-23 23:06:00,SystemResetWarning,0824.6,5.01,000.00,026.5,025.6,000.0,034.7,028.0,14.0,0002.7,0010.69,0017.24,0009.88
2024-01-23 23:07:00,SystemResetWarning,0824.6,5.00,000.00,026.5,025.6,000.0,034.7,028.0,14.0,0002.4,0010.78,0017.58,0009.95
2024-01-23 23:08:00,SystemResetWarning,0824.6,4.99,000.00,026.5,025.6,000.0,034.7,028.0,14.0,0002.3,0010.83,0018.37,0010.01
2024-01-23 23:09:00,SystemResetWarning,0824.7,4.99,000.00,026.6,025.6,000.0,034.7,028.0,14.0,0002.1,0010.93,0018.53,0010.07
2024-01-23 23:10:00,SystemResetWarning,0824.7,4.99,000.00,026.6,025.6,000.0,034.8,028.0,14.0,0002.3,0010.98,0019.14,0010.12
2024-01-23 23:11:00,SystemResetWarning,0824.7,5.01,000.00,026.6,025.6,000.0,034.8,028.0,14.0,0002.3,0011.00,0018.92,0010.16
2024-01-23 23:12:00,SystemResetWarning,0824.7,5.01,000.00,026.6,025.6,000.0,034.8,028.0,14.0,0002.4,0011.04,0019.38,0010.19
2024-01-23 23:13:00,SystemResetWarning,0824.7,5.00,000.00,026.6,025.6,000.0,034.8,028.0,14.0,0002.4,0011.17,0019.96,0010.22
2024-01-23 23:14:00,SystemResetWarning,0824.7,5.00,000.00,026.6,025.6,000.0,034.8,028.0,14.0,0002.6,0011.23,0019.97,0010.26
2024-01-23 23:15:00,SystemResetWarning,0824.7,5.00,000.00,026.6,025.6,000.0,034.8,028.0,14.0,0002.4,0011.24,0020.17,0010.28
2024-01-23 23:16:00,SystemResetWarning,0824.7,5.00,000.00,026.6,025.6,000.0,034.8,028.1,14.0,0002.5,0011.19,0020.33,0010.28
2024-01-23 23:17:00,SystemResetWarning,0824.7,4.99,000.00,026.6,025.6,000.0,034.8,028.1,14.0,0002.7,0011.12,0020.15,0010.25
2024-01-23 23:18:00,SystemResetWarning,0824.7,5.01,000.00,026.6,025.6,000.0,034.8,028.0,14.0,0002.6,0011.06,0020.00,0010.23
2024-01-23 23:19:00,SystemResetWarning,0824.7,5.01,000.00,026.6,025.7,000.0,034.9,028.1,14.0,0002.7,0011.05,0019.21,0010.23
2024-01-23 23:20:00,SystemResetWarning,0824.7,5.00,000.00,026.6,025.7,000.0,034.9,028.1,14.0,0002.6,0010.98,0018.77,0010.20
2024-01-23 23:21:00,SystemResetWarning,0824.7,4.99,000.00,026.6,025.7,000.0,034.9,028.1,14.0,0002.7,0010.94,0018.10,0010.17
2024-01-23 23:22:00,SystemResetWarning,0824.7,5.00,000.00,026.7,025.7,000.0,034.9,028.1,14.0,0002.6,0010.90,0018.14,0010.16
2024-01-23 23:23:00,SystemResetWarning,0824.7,5.00,000.00,026.7,025.7,000.0,034.9,028.1,14.0,0002.6,0010.89,0017.68,0010.15
2024-01-23 23:24:00,SystemResetWarning,0824.7,5.00,000.00,026.7,025.7,000.0,034.9,028.1,14.0,0002.7,0010.78,0016.95,0010.16
2024-01-23 23:25:00,SystemResetWarning,0824.8,5.00,000.00,026.7,025.7,000.0,034.9,028.1,14.0,0002.5,0010.71,0017.29,0010.15
2024-01-23 23:26:00,SystemResetWarning,0824.8,5.00,000.00,026.7,024.6,000.0,034.9,028.1,14.0,0002.6,0010.74,0017.30,0010.15
2024-01-23 23:27:00,SystemResetWarning,0824.7,5.00,000.00,026.6,022.6,000.0,034.9,027.9,14.0,0002.5,0010.74,0016.70,0010.14
2024-01-23 23:28:00,SystemResetWarning,0824.7,5.01,000.00,026.5,022.2,000.0,034.8,027.5,14.1,0002.6,0010.81,0016.84,0010.15
2024-01-23 23:29:00,SystemResetWarning,0824.7,5.01,000.00,026.3,022.5,000.0,034.7,027.0,14.2,0002.5,0010.88,0017.07,0010.16
2024-01-23 23:30:00,SystemResetWarning,0824.8,5.00,000.00,026.1,022.9,000.0,034.7,026.9,14.3,0002.5,0010.85,0017.42,0010.14
2024-01-23 23:31:00,SystemResetWarning,0824.8,4.99,000.00,026.0,023.2,000.0,034.6,027.0,14.4,0002.8,0010.92,0017.45,0010.16
2024-01-23 23:32:00,SystemResetWarning,0824.8,5.00,000.00,026.0,023.6,000.0,034.6,027.1,14.4,0002.8,0010.93,0017.34,0010.17
2024-01-23 23:33:00,SystemResetWarning,0824.8,5.00,000.00,026.0,023.9,000.0,034.5,027.2,14.5,0002.9,0010.93,0016.65,0010.18
2024-01-23 23:34:00,SystemResetWarning,0824.8,5.00,000.00,026.0,024.1,000.0,034.5,027.2,14.5,0003.2,0010.92,0016.66,0010.16
2024-01-23 23:35:00,SystemResetWarning,0824.8,5.00,000.00,026.0,024.3,000.0,034.5,027.3,14.5,0002.9,0010.96,0017.00,0010.17
2024-01-23 23:36:00,SystemResetWarning,0824.8,4.99,000.00,026.0,024.4,000.0,034.4,027.3,14.5,0002.9,0011.00,0016.61,0010.21
2024-01-23 23:37:00,SystemResetWarning,0824.9,5.00,000.00,026.0,024.5,000.0,034.4,027.4,14.5,0002.8,0011.01,0016.77,0010.22
2024-01-23 23:38:00,SystemResetWarning,0824.9,5.00,000.00,026.0,024.7,000.0,034.4,027.4,14.5,0002.9,0011.07,0016.87,0010.24
2024-01-23 23:39:00,SystemResetWarning,0824.9,5.00,000.00,026.0,024.7,000.0,034.4,027.4,14.5,0002.8,0011.05,0016.81,0010.25
2024-01-23 23:40:00,SystemResetWarning,0824.9,5.00,000.00,026.0,024.8,000.0,034.4,027.5,14.5,0002.8,0010.99,0016.63,0010.24
2024-01-23 23:41:00,SystemResetWarning,0824.9,5.00,000.00,026.0,024.9,000.0,034.4,027.5,14.4,0003.0,0011.02,0016.79,0010.27
2024-01-23 23:42:00,SystemResetWarning,0824.9,5.00,000.00,026.1,024.9,000.0,034.4,027.5,14.4,0003.0,0011.07,0017.60,0010.28
2024-01-23 23:43:00,SystemResetWarning,0824.9,5.00,000.00,026.1,024.9,000.0,034.4,027.5,14.4,0003.1,0011.06,0018.00,0010.28
2024-01-23 23:44:00,SystemResetWarning,0824.9,5.00,000.00,026.1,025.0,000.0,034.4,027.5,14.4,0003.1,0011.06,0018.82,0010.28
2024-01-23 23:45:00,SystemResetWarning,0824.9,5.00,000.00,026.1,025.0,000.0,034.4,027.5,14.4,0002.9,0011.05,0018.79,0010.30
2024-01-23 23:46:00,SystemResetWarning,0824.9,5.00,000.00,026.1,025.0,000.0,034.4,027.6,14.4,0002.8,0011.04,0018.89,0010.30
2024-01-23 23:47:00,SystemResetWarning,0824.9,5.00,000.00,026.1,025.1,000.0,034.4,027.6,14.3,0002.8,0011.05,0018.77,0010.26
2024-01-23 23:48:00,SystemResetWarning,0824.9,5.00,000.00,026.1,025.1,000.0,034.4,027.6,14.3,0002.9,0011.02,0018.64,0010.24
2024-01-23 23:49:00,SystemResetWarning,0824.9,5.00,000.00,026.2,025.1,000.0,034.4,027.6,14.3,0002.8,0010.95,0019.45,0010.20
2024-01-23 23:50:00,SystemResetWarning,0824.9,5.00,000.00,026.2,025.1,000.0,034.4,027.6,14.3,0002.6,0010.96,0019.76,0010.17
2024-01-23 23:51:00,SystemResetWarning,0824.9,5.00,000.00,026.2,025.2,000.0,034.4,027.6,14.3,0002.4,0010.97,0019.77,0010.15
2024-01-23 23:52:00,SystemResetWarning,0824.9,5.00,000.00,026.2,025.2,000.0,034.4,027.6,14.3,0002.2,0010.93,0019.40,0010.08
2024-01-23 23:53:00,SystemResetWarning,0824.9,5.00,000.00,026.2,025.2,000.0,034.4,027.6,14.3,0002.0,0010.84,0018.60,0010.01
2024-01-23 23:54:00,SystemResetWarning,0824.9,5.01,000.00,026.2,025.2,000.0,034.4,027.6,14.3,0001.7,0010.76,0018.36,0009.95
2024-01-23 23:55:00,SystemResetWarning,0824.9,5.00,000.00,026.2,025.2,000.0,034.5,027.7,14.3,0001.9,0010.78,0017.88,0009.90
2024-01-23 23:56:00,SystemResetWarning,0824.9,5.00,000.00,026.2,025.2,000.0,034.5,027.7,14.3,0002.0,0010.75,0018.44,0009.85
2024-01-23 23:57:00,SystemResetWarning,0824.9,5.00,000.00,026.2,025.2,000.0,034.5,027.7,14.3,0002.2,0010.75,0018.34,0009.82
2024-01-23 23:58:00,SystemResetWarning,0824.9,5.00,000.00,026.2,025.2,000.0,034.5,027.7,14.3,0002.1,0010.70,0018.17,0009.75
2024-01-23 23:59:00,SystemResetWarning,0824.9,5.00,000.00,026.3,025.2,000.0,034.5,027.7,14.3,0002.3,0010.61,0017.92,0009.69
